THORAD DELTA 1 DEB, 10393

Orbit data source: Space-Track

THORAD DELTA 1 DEB, 10393 is space debris in SSO originally from a launch on Fri, 15 Nov 1974 UTC launched from the Air Force Western Test Range (AFWTR). Debris objects in space refer to the collection of defunct objects orbiting the Earth. Examples of debris include non-operational satellites, rocket bodies, and fragments generated from explosions, collisions, or faulty payload assembly.

Loading next visibility...
Identifier
10393, 1974-089EJ
Orbit
SSO
Country
Flag of USUS
Related business
Manufacturer
Unknown
Mission
Spacecraft
Bus & Motor
Unknown
Mass
Unknown
Launch date (UTC)
1974-11-15 (51 years ago)
Launch vehicle
Unknown
Launch site
Air Force Western Test Range (AFWTR)
Object type
Payload
Rocket body
Debris
Shape & HBR
Unknown shape, 0.2 m
Radar Cross Section
Small (<0.1 m²)

Expand to show TLE details & history
Last TLE update: 7 hours ago

TLE from 7 hours ago
0 THORAD DELTA 1 DEB
1 10393U 74089EJ  26095.59003943  .00000084  00000-0  10939-2 0  9995
2 10393 101.6186  33.2257 0158605  64.5673 106.2082 12.24141268301126
Epoch: 2026-04-05T14:09Z
TLE epoch observation values (Epoch: 2026-04-05T14:09:39.406Z)
Latitude
7.27212°
Longitude
168.41444°
Altitude
1,613.498 km
Speed
7.048 km/s
True Right ascension
14h 18m 53s
True Declination
7° 14' 01"
Sunlit
Object was in full shadow at epoch
Visualization orbit readout
Latitude
Unknown
Longitude
Unknown
Altitude
Unknown
Speed
Unknown
Apparent Right ascension
Unknown
Apparent Declination
Unknown
Sunlit
N/A
Visualization observer readout
Local Sidereal Time
03:00:38
Azimuth
Unknown
Elevation
Unknown
Doppler factor
Unknown
Orbital elements
Apogee altitude
1,698.222 km
Perigee altitude
1,446.032 km
Semi-major axis
7,950.264 km
Eccentricity
0.01586
Inclination
101.6186°
RAAN
33.2257°
Arg. of periapsis
64.5673°
True anomaly
107.94357°
Mean anomaly
106.2082°
Eccentric anomaly
107.07687°
Mean motion
3.06176 °/min
Orbital period
117.58 mins
BSTAR
0.0010939
Loading maneuver chart data...
Computing Atmospheric mass density...

Documentation

Showing up to 5 results
|